{"data":{"norad_id":53592,"epoch":"2026-05-24T14:32:45.268800Z","epoch_age_seconds":102275,"freshness":"FRESH","line1":"1 53592U 22104E   26144.60607950 -.00000850  00000+0 -35362-4 0  9990","line2":"2 53592  53.2164 263.4590 0000924  87.5317 272.5781 15.08834958207408","mean_motion":15.08834958,"eccentricity":9.24e-5,"inclination_deg":53.2164,"raan_deg":263.459,"arg_perigee_deg":87.5317,"mean_anomaly_deg":272.5781,"bstar":-3.5362e-5,"rev_number":20740,"period_min":95.437873596775,"perigee_km":539.11958681198,"apogee_km":540.39801395589,"semimajor_km":6917.8958003839,"source":"CELESTRAK","updated_at":"2026-05-25T13:38:17.474461Z"}}